Temp
-17 -16 -15 -15 -15 -15 -14 -15 -13 -13 -13 -13 -13 -13 -13 -13 -13 -13 -13 -13 -13 -13 -13 -13 -14 -14 -14 -14 -14 -14 -13 -13 -13 -13 -13 -14 -14 -13
-17 -17 -16 -16 -15 -15 -15 -15 -15 -14 -13 -13 -13 -13 -13 -13 -14 -14 -14 -13 -14 -14 -14 -13 -14 -14 -14 -14 -14 -14 -14 -14 -14 -14 -13 -13 -13 -13
-17 -17 -17 -16 -15 -15 -15 -15 -15 -14 -14 -13 -14 -14 -14 -14 -14 -14 -13 -14 -13 -14 -14 -14 -14 -14 -14 -14 -14 -14 -14 -14 -14 -14 -14 -14 -14 -13
-18 -18 -17 -16 -16 -15 -16 -15 -15 -15 -15 -14 -15 -14 -15 -16 -16 -15 -14 -13 -14 -14 -14 -14 -14 -14 -14 -14 -14 -14 -14 -14 -13 -14 -14 -14 -14 -14
-18 -18 -17 -17 -16 -16 -16 -16 -16 -16 -16 -15 -15 -16 -16 -17 -16 -14 -13 -14 -14 -14 -14 -14 -14 -14 -14 -14 -14 -14 -14 -14 -14 -14 -14 -14 -14 -14
-18 -18 -18 -17 -16 -16 -16 -16 -16 -16 -16 -16 -15 -15 -16 -16 -16 -15 -15 -15 -15 -14 -14 -14 -14 -14 -14 -14 -14 -14 -14 -14 -14 -14 -13 -13 -13 -14
-18 -18 -17 -17 -17 -17 -17 -17 -16 -16 -16 -16 -15 -16 -16 -16 -15 -15 -15 -14 -15 -14 -13 -14 -14 -15 -15 -14 -14 -15 -14 -14 -15 -14 -14 -13 -13 -13
-19 -19 -18 -17 -17 -17 -16 -17 -17 -17 -17 -16 -17 -16 -16 -16 -15 -15 -15 -15 -14 -15 -14 -14 -15 -15 -14 -14 -14 -15 -15 -15 -15 -14 -13 -14 -13 -13
-19 -19 -19 -19 -18 -18 -19 -18 -18 -18 -18 -17 -17 -17 -17 -16 -16 -15 -15 -15 -15 -14 -15 -15 -14 -15 -15 -15 -15 -15 -15 -15 -14 -14 -14 -14 -14 -14
-19 -20 -20 -20 -20 -20 -19 -19 -20 -20 -19 -19 -18 -18 -17 -17 -17 -16 -16 -16 -16 -15 -15 -15 -15 -15 -15 -15 -15 -15 -15 -15 -15 -14 -15 -14 -14 -14
-22 -22 -21 -21 -20 -20 -20 -20 -20 -20 -20 -20 -19 -18 -18 -18 -17 -17 -17 -16 -16 -16 -15 -15 -15 -14 -14 -16 -15 -15 -15 -15 -15 -15 -14 -15 -15 -14
-22 -22 -21 -22 -21 -21 -20 -21 -20 -20 -20 -20 -19 -19 -19 -18 -18 -17 -17 -17 -17 -16 -15 -15 -16 -15 -15 -15 -15 -15 -15 -15 -14 -15 -15 -15 -15 -15
-22 -22 -22 -22 -22 -22 -22 -21 -21 -22 -21 -20 -20 -20 -19 -20 -19 -19 -18 -17 -17 -17 -16 -16 -16 -16 -16 -15 -15 -15 -15 -15 -15 -15 -15 -15 -15 -15
-23 -23 -23 -23 -23 -23 -23 -23 -23 -23 -22 -22 -21 -20 -20 -21 -20 -20 -19 -18 -18 -17 -17 -17 -17 -17 -17 -16 -16 -16 -16 -15 -15 -15 -15 -15 -15 -15
-23 -23 -23 -23 -23 -23 -23 -23 -23 -23 -23 -24 -23 -23 -22 -21 -20 -20 -19 -18 -18 -18 -17 -17 -16 -16 -17 -16 -16 -16 -16 -15 -16 -15 -15 -15 -16 -16
-24 -24 -24 -24 -23 -23 -23 -23 -23 -23 -23 -23 -23 -24 -24 -24 -23 -22 -22 -21 -19 -19 -18 -17 -17 -17 -16 -16 -16 -16 -16 -16 -16 -16 -16 -16 -16 -16
-24 -24 -24 -24 -24 -24 -24 -24 -24 -23 -23 -23 -23 -23 -23 -23 -23 -24 -24 -23 -23 -22 -21 -21 -20 -18 -18 -17 -17 -17 -17 -16 -17 -16 -16 -16 -16 -16
-24 -24 -24 -24 -24 -25 -24 -24 -24 -24 -24 -23 -23 -23 -23 -23 -23 -23 -23 -23 -23 -23 -23 -23 -23 -22 -22 -20 -18 -17 -17 -17 -17 -16 -16 -16 -16 -16
-24 -24 -24 -25 -25 -25 -25 -24 -24 -24 -24 -24 -24 -24 -23 -23 -23 -23 -22 -22 -22 -22 -22 -22 -23 -23 -22 -22 -21 -21 -19 -19 -18 -17 -17 -17 -17 -17
-25 -25 -25 -25 -25 -25 -25 -24 -24 -24 -24 -24 -24 -24 -24 -23 -23 -23 -22 -22 -22 -22 -22 -22 -22 -22 -21 -21 -21 -21 -21 -21 -20 -20 -20 -20 -19 -18
-25 -25 -25 -25 -25 -25 -25 -25 -25 -25 -26 -26 -25 -25 -25 -24 -24 -24 -23 -23 -23 -22 -22 -22 -22 -22 -22 -21 -21 -21 -21 -21 -20 -20 -20 -19 -19 -19
-26 -26 -26 -26 -26 -26 -26 -26 -26 -26 -26 -25 -25 -25 -25 -24 -24 -24 -24 -24 -24 -23 -23 -23 -22 -22 -22 -22 -21 -21 -21 -21 -21 -20 -20 -20 -20 -20
-26 -27 -27 -27 -27 -27 -27 -26 -26 -25 -25 -25 -25 -25 -25 -25 -24 -24 -24 -24 -24 -24 -23 -23 -23 -23 -22 -22 -22 -22 -21 -21 -21 -21 -20 -20 -20 -20
Height
5599 5607 5616 5625 5634 5640 5644 5648 5652 5656 5664 5672 5677 5681 5684 5686 5688 5691 5696 5699 5701 5705 5709 5712 5713 5715 5716 5718 5720 5722 5722 5724 5724 5725 5726 5727 5728 5730
5583 5589 5598 5607 5618 5624 5631 5635 5639 5646 5649 5656 5663 5668 5669 5667 5674 5678 5682 5685 5690 5693 5699 5701 5705 5705 5707 5708 5710 5712 5714 5715 5716 5718 5719 5720 5721 5722
5568 5575 5583 5590 5602 5610 5616 5622 5626 5630 5636 5643 5648 5647 5651 5656 5659 5666 5668 5670 5677 5682 5686 5691 5693 5696 5696 5699 5701 5702 5704 5705 5707 5708 5710 5712 5713 5713
5557 5564 5572 5580 5590 5596 5601 5607 5613 5615 5618 5627 5624 5633 5638 5642 5647 5652 5657 5658 5662 5670 5673 5678 5682 5685 5686 5688 5691 5692 5694 5694 5696 5698 5700 5702 5704 5706
5548 5554 5561 5569 5576 5582 5590 5595 5600 5604 5610 5612 5616 5621 5624 5633 5638 5642 5645 5646 5650 5658 5661 5666 5669 5674 5675 5676 5679 5682 5683 5683 5686 5687 5690 5691 5693 5695
5542 5547 5552 5557 5563 5569 5574 5580 5586 5590 5594 5600 5605 5610 5616 5621 5624 5630 5636 5638 5641 5644 5649 5652 5654 5660 5664 5664 5667 5669 5671 5672 5674 5677 5679 5680 5682 5683
5535 5540 5543 5547 5552 5556 5561 5566 5571 5576 5579 5583 5589 5593 5599 5605 5611 5618 5624 5627 5628 5630 5634 5639 5642 5645 5649 5652 5654 5656 5659 5660 5661 5663 5666 5668 5670 5670
5530 5532 5534 5535 5539 5543 5548 5552 5556 5559 5563 5568 5572 5577 5582 5590 5598 5602 5607 5612 5616 5619 5621 5625 5628 5632 5634 5638 5641 5643 5643 5645 5648 5650 5651 5653 5655 5657
5523 5525 5527 5526 5528 5530 5533 5536 5539 5542 5547 5552 5556 5560 5566 5573 5582 5586 5589 5593 5598 5604 5608 5608 5609 5613 5617 5621 5624 5627 5630 5630 5632 5635 5636 5638 5640 5642
5517 5519 5519 5520 5520 5520 5521 5522 5526 5528 5531 5535 5539 5544 5548 5555 5562 5568 5572 5577 5580 5585 5591 5591 5594 5597 5601 5604 5608 5611 5612 5614 5616 5619 5622 5622 5624 5627
5517 5515 5512 5510 5511 5512 5514 5515 5517 5517 5519 5521 5523 5526 5529 5535 5540 5547 5552 5557 5561 5565 5571 5575 5576 5579 5584 5588 5589 5594 5596 5597 5599 5604 5605 5607 5610 5612
5518 5516 5514 5512 5509 5506 5504 5504 5506 5507 5508 5509 5510 5512 5514 5516 5519 5524 5529 5536 5541 5546 5552 5554 5556 5560 5563 5569 5572 5574 5576 5576 5580 5584 5588 5589 5592 5594
5517 5515 5512 5510 5508 5505 5503 5500 5498 5497 5497 5498 5498 5499 5500 5501 5502 5505 5508 5515 5521 5525 5529 5533 5537 5541 5543 5546 5550 5554 5556 5558 5562 5564 5568 5570 5572 5575
5514 5512 5509 5506 5504 5502 5500 5497 5494 5491 5489 5488 5485 5486 5485 5486 5488 5490 5493 5496 5499 5505 5508 5513 5517 5519 5521 5524 5528 5532 5533 5537 5540 5542 5547 5551 5553 5556
5510 5508 5505 5503 5500 5498 5495 5492 5490 5487 5485 5482 5479 5477 5474 5474 5475 5476 5475 5476 5479 5483 5486 5492 5494 5497 5499 5503 5506 5510 5513 5515 5517 5521 5524 5530 5534 5537
5502 5500 5498 5496 5493 5490 5487 5483 5481 5479 5477 5474 5471 5470 5467 5464 5462 5461 5459 5457 5461 5464 5465 5468 5469 5472 5477 5480 5483 5486 5490 5492 5494 5498 5501 5507 5511 5514
5494 5491 5488 5485 5482 5479 5476 5473 5470 5466 5464 5462 5460 5458 5456 5453 5451 5449 5447 5446 5445 5445 5445 5445 5448 5448 5453 5456 5461 5464 5467 5469 5472 5477 5480 5484 5488 5492
5485 5481 5478 5474 5470 5466 5462 5459 5455 5452 5449 5446 5442 5439 5438 5437 5435 5434 5433 5433 5432 5431 5430 5429 5430 5431 5434 5434 5437 5440 5443 5447 5451 5454 5458 5461 5464 5468
5474 5469 5465 5460 5455 5450 5445 5441 5437 5433 5429 5426 5423 5420 5418 5416 5415 5414 5414 5413 5412 5412 5412 5412 5413 5413 5414 5416 5418 5418 5420 5424 5427 5430 5434 5439 5442 5445
5460 5454 5449 5443 5437 5432 5426 5420 5415 5411 5407 5403 5400 5398 5396 5393 5393 5392 5391 5391 5390 5390 5390 5391 5393 5393 5394 5395 5397 5398 5401 5404 5407 5409 5412 5415 5418 5421
5443 5438 5431 5425 5419 5412 5406 5401 5395 5390 5386 5381 5377 5374 5371 5369 5367 5367 5366 5366 5367 5366 5366 5366 5367 5370 5371 5372 5375 5375 5376 5379 5382 5385 5388 5391 5394 5397
5426 5419 5412 5404 5398 5391 5385 5379 5374 5369 5365 5361 5356 5353 5350 5346 5344 5342 5340 5339 5338 5339 5340 5340 5341 5341 5343 5346 5348 5350 5352 5354 5355 5358 5362 5365 5368 5370
5405 5398 5390 5383 5377 5371 5365 5360 5354 5348 5342 5337 5332 5327 5322 5318 5315 5313 5311 5309 5309 5309 5309 5309 5311 5312 5313 5315 5318 5321 5324 5326 5328 5331 5334 5337 5340 5342
Wind_Speed
54 61 69 67 60 62 59 55 57 53 54 61 55 50 47 45 64 61 54 53 53 45 43 41 36 34 34 33 33 31 28 26 23 22 22 24 25 26
49 51 59 61 60 62 55 55 57 51 42 50 57 54 42 46 26 33 51 62 52 47 43 42 39 37 37 37 35 35 33 30 28 26 25 25 26 28
44 50 54 58 56 59 57 55 56 51 43 45 49 36 50 46 35 33 30 41 52 50 40 44 40 40 37 38 40 37 38 35 32 31 30 28 28 26
41 48 51 52 55 57 56 58 55 61 54 58 50 59 41 28 34 31 32 36 52 54 44 46 42 44 38 39 41 41 41 39 39 36 34 33 32 32
41 44 46 48 52 53 56 58 59 57 55 53 51 51 47 42 40 34 33 36 44 48 46 46 45 47 44 40 40 40 42 39 42 40 38 38 38 36
33 38 43 45 47 50 53 54 54 56 56 55 55 53 51 46 40 38 42 39 40 43 55 53 51 52 51 44 43 44 41 43 44 45 43 40 40 40
24 26 31 38 45 49 53 56 57 58 58 56 57 54 55 50 47 47 45 46 44 42 48 56 55 55 51 50 47 47 48 49 47 48 48 48 46 45
21 22 24 31 38 46 52 56 60 62 63 64 59 62 63 59 55 55 52 49 48 50 43 58 61 61 57 55 52 53 51 52 52 51 52 52 52 50
19 20 19 19 28 35 43 55 56 58 62 66 67 65 63 62 59 61 59 58 56 56 54 53 57 68 65 64 60 59 56 53 55 56 52 52 52 53
10 13 16 19 20 26 36 45 48 46 47 50 55 59 63 63 60 59 59 58 58 56 60 53 53 59 62 62 63 64 62 56 55 55 55 53 55 56
7 14 15 19 22 21 25 32 38 42 45 48 50 52 56 61 63 62 62 62 60 59 57 58 57 54 62 60 61 66 63 58 57 59 56 55 56 57
18 19 21 7 8 16 21 26 32 38 42 45 50 53 54 58 62 66 67 63 63 61 62 65 66 67 68 67 59 68 65 65 64 61 60 60 58 55
19 18 17 19 21 22 11 8 12 13 31 39 42 50 53 55 57 61 66 66 66 59 64 67 63 62 60 64 63 64 67 77 74 69 66 66 64 61
23 24 24 24 23 22 21 22 26 27 22 20 29 42 45 48 54 54 60 66 67 63 61 65 70 72 63 64 71 72 75 72 73 70 76 71 67 67
25 27 27 28 29 29 29 28 28 28 28 31 30 26 23 34 48 53 62 61 65 68 64 69 73 74 73 71 72 73 69 77 75 80 74 76 77 68
23 24 25 28 31 32 34 35 34 34 35 36 33 34 34 35 34 36 33 31 60 67 67 72 71 76 74 76 75 75 79 78 81 76 73 74 72 71
33 34 35 37 39 40 40 39 40 42 44 44 43 44 42 40 40 41 41 41 40 39 42 47 54 59 69 70 72 71 68 68 69 73 75 73 74 70
41 43 44 45 47 49 49 47 45 46 47 49 51 52 51 50 51 49 47 47 48 48 48 47 47 47 49 56 66 72 76 76 78 78 78 75 76 77
47 49 51 53 55 54 52 52 53 55 54 54 55 55 57 58 59 58 58 58 57 55 55 54 55 55 56 55 56 58 63 68 73 75 77 78 76 77
52 54 56 58 59 58 59 62 63 65 66 62 60 59 60 62 63 64 65 65 65 65 65 64 63 62 62 62 62 63 63 65 66 67 67 67 70 73
57 58 59 61 65 67 67 67 65 60 57 56 56 58 60 63 65 68 70 70 71 72 73 73 72 71 70 69 68 69 71 71 72 72 72 74 74 74
61 64 66 66 65 62 59 58 57 57 57 57 58 59 60 62 64 66 69 72 74 76 77 78 79 79 79 78 77 77 77 76 77 77 77 78 79 80
67 67 67 64 60 58 58 60 62 63 65 66 67 67 68 68 69 70 71 73 74 76 78 80 82 84 84 84 85 84 84 84 83 83 82 83 83 84
Wind_Direction
249 245 242 243 241 243 247 250 236 241 239 240 240 245 254 263 252 249 259 255 251 243 250 252 248 249 252 252 253 258 259 263 262 257 256 251 247 248
245 238 239 238 238 241 246 245 247 235 243 238 236 243 255 238 241 251 259 253 249 244 247 250 248 249 251 247 250 254 255 256 261 259 252 250 250 247
241 231 230 233 234 241 242 246 247 238 243 243 245 234 236 242 250 263 268 256 251 245 239 249 247 248 247 249 249 249 254 256 257 258 261 254 253 253
235 229 225 228 232 239 243 245 246 247 251 245 254 251 262 264 268 264 263 252 249 240 233 241 245 246 249 250 252 249 251 255 257 258 257 262 255 248
228 225 222 226 231 236 243 246 249 251 251 253 257 262 265 259 261 260 256 239 243 245 239 241 243 248 248 248 250 253 251 252 256 255 260 257 260 257
235 231 225 224 231 236 241 245 246 250 251 252 253 255 255 254 254 251 249 244 248 251 243 238 241 244 247 244 247 252 254 252 252 253 257 256 254 256
224 227 235 238 236 235 237 240 242 244 247 250 250 251 251 251 249 249 248 245 247 252 251 239 242 242 244 246 243 244 249 253 249 250 254 256 255 254
245 247 248 245 243 244 243 241 241 242 243 245 246 248 250 250 249 250 249 246 246 244 252 245 240 245 245 243 244 245 243 246 252 254 253 255 254 255
256 248 253 264 254 249 246 241 241 243 242 243 245 248 247 248 247 247 245 244 245 243 248 255 249 243 245 245 242 245 244 247 253 255 256 256 255 251
316 281 272 265 276 262 253 245 241 242 243 242 243 244 247 248 247 245 245 242 243 242 246 249 243 239 242 245 247 244 245 246 250 251 252 254 252 252
13 10 312 284 280 275 254 249 247 245 245 245 245 245 245 244 245 245 243 241 240 244 244 246 241 246 244 251 250 244 246 250 250 252 252 251 251 254
0 357 346 301 294 289 267 262 256 254 254 251 247 245 245 246 245 241 243 241 238 242 240 241 248 249 253 249 253 244 242 247 252 251 255 254 255 254
340 339 339 340 338 335 324 292 253 269 245 251 256 251 253 252 251 246 240 236 239 242 245 248 248 245 247 246 251 248 254 253 252 249 252 255 260 258
324 323 324 323 321 318 315 317 318 312 304 255 241 242 250 256 245 253 240 243 236 238 243 242 246 249 251 249 252 249 252 248 248 252 248 250 256 258
316 309 306 304 304 305 304 300 298 295 295 298 296 285 271 244 238 241 235 234 236 238 244 243 246 247 249 252 254 249 248 250 255 252 249 248 250 253
323 320 316 308 304 298 292 291 289 287 284 282 281 279 279 283 284 270 270 250 232 238 237 240 244 241 247 249 249 249 250 252 251 250 248 247 249 250
310 308 306 307 308 308 305 297 289 285 282 279 276 273 271 268 268 272 272 274 273 262 255 245 242 241 240 242 247 248 247 248 246 245 246 250 248 250
308 305 304 304 302 301 300 296 295 293 287 281 277 275 273 270 266 262 260 262 263 265 266 264 263 255 254 252 249 247 243 245 246 247 249 251 251 253
302 301 301 300 301 296 296 297 294 292 290 288 283 277 271 270 268 267 264 262 259 258 259 260 262 262 261 260 256 256 256 253 250 248 247 248 250 251
300 299 299 298 298 298 297 297 296 294 293 288 282 277 273 270 267 265 264 264 263 261 259 256 255 256 257 258 259 258 257 257 257 257 256 256 254 254
302 301 301 301 300 299 297 296 294 291 288 284 281 278 275 272 269 267 265 263 261 261 261 261 260 257 256 255 256 256 257 258 258 258 259 258 258 257
305 305 305 304 303 300 298 297 295 293 291 289 287 283 279 275 272 270 268 266 264 262 260 260 260 260 259 258 257 256 256 257 258 258 259 259 259 260
310 308 306 305 304 302 300 299 299 297 295 292 289 286 283 280 277 273 271 268 266 264 262 261 260 259 259 259 259 258 258 258 258 258 258 259 259 259